Regional Weather Roundup
Issued by NWS

Home | Current Version | Previous Version | Text Only | Print | Product List | Glossary On
Versions: 1 2 3 4 5 6 7 8 9 10 11 12 13 14 15 16 17 18 19 20 21 22 23 24 25 26 27 28 29 30 31 32 33 34 35 36 37 38 39 40 41 42 43 44 45 46 47 48 49 50
000
ASUS44 KLIX 251810
RWRLA
LOUISIANA WEATHER ROUNDUP
NATIONAL WEATHER SERVICE NEW ORLEANS LA
100 PM CDT FRI JUL 25 2014

NOTE: "FAIR" INDICATES FEW OR NO CLOUDS BELOW 12,000 FEET WITH NO
      SIGNIFICANT WEATHER AND/OR OBSTRUCTIONS TO VISIBILITY.
      SKY/WX - SKY CONDITION AND SIGNIFICANT WEATHER.
      TMP - AIR TEMPERATURE.    DP   - DEWPOINT TEMPERATURE.
      RH  - RELATIVE HUMIDITY.  PRES - PRESSURE.
      HX  - HEAT INDEX.         WCI  - WIND CHILL INDEX.

*  THESE STATIONS ARE NOT NWS OR FAA STATIONS AND ARE NOT UNDER
   NWS QUALITY CONTROL.

LAZ040-048-061>063-065-066-069-251900-
SOUTHEAST LOUISIANA

CITY           SKY/WX    TMP DP  RH WIND       PRES   REMARKS
N.O. AUDUBON     N/A     96  77  53 MISG        N/A  HX 110
6HR MIN TEMP:  79; 6HR MAX TEMP:  96;

N.O. INTL ARPT PTSUNNY   88  73  61 VRB3      30.03F HX  95
6HR MIN TEMP:  78; 6HR MAX TEMP:  91;

N.O. LAKEFRONT SUNNY     89  78  70 N7        30.04F HX 103
6HR MIN TEMP:  81; 6HR MAX TEMP:  89;

N.O. DOWNTOWN* MOCLDY    91  72  52 NW3       30.03F HX  98
6HR MIN TEMP:  79; 6HR MAX TEMP:  91;

SLIDELL        MOSUNNY   90  73  57 VRB5      30.02F HX  98
6HR MIN TEMP:  74; 6HR MAX TEMP:  90;

BATON ROUGE    MOSUNNY   90  72  55 SW6       30.03F HX  97
6HR MIN TEMP:  75; 6HR MAX TEMP:  91;

BOOTHVILLE     SUNNY     86  76  71 SW9       30.05F HX  96
6HR MIN TEMP:  81; 6HR MAX TEMP:  86;

BELLE CHASSE   PTSUNNY   91  70  49 W6        30.02F HX  96
6HR MIN TEMP:  78; 6HR MAX TEMP:  91;

BOGALUSA*      FAIR      91  72  53 W3        30.03F HX  99
6HR MIN TEMP:  76; 6HR MAX TEMP:  92;

GALLIANO*      NOT AVBL
NEW ROADS*     MOCLDY    88  73  60 MISG      30.03F HX  96
6HR MIN TEMP:  74; 6HR MAX TEMP:  89;

GONZALES*      FAIR      89  75  63 CALM      30.02F HX  99
6HR MIN TEMP:  75; 6HR MAX TEMP:  90;

HAMMOND*       MOSUNNY   90  72  55 W5        30.04F HX  96
HOUMA*         MOSUNNY   91  70  49 SW6       30.03F HX  97
PORT FOURCHON* CLEAR     86  75  70 W8        30.07F HX  95

$$

LAZ041-044-053-054-251900-
SOUTHWEST LOUISIANA

CITY           SKY/WX    TMP DP  RH WIND       PRES   REMARKS
LAKE CHARLES   MOSUNNY   88  74  63 VRB3      30.02F HX  96
6HR MIN TEMP:  78; 6HR MAX TEMP:  89;

LAFAYETTE      PTSUNNY   90  74  59 W7        30.02F HX  99
6HR MIN TEMP:  76; 6HR MAX TEMP:  91;

PATTERSON      MOSUNNY   90  77  66 W9        30.08F HX 102
6HR MIN TEMP:  75; 6HR MAX TEMP:  90;

SALT POINT       N/A     90  78  68 VRB5      30.03F HX 104
6HR MIN TEMP:  85; 6HR MAX TEMP:  91;

NEW IBERIA     MOSUNNY   90  73  57 MISG      30.03F HX  98
6HR MIN TEMP:  75; 6HR MAX TEMP:  91;

CHENAULT AIRPK MOSUNNY   88  73  62 NE3       30.03F HX  96

$$

LAZ027-028-251900-
CENTRAL LOUISIANA

CITY           SKY/WX    TMP DP  RH WIND       PRES   REMARKS
FORT POLK      MOSUNNY   89  70  53 NW6       30.03F
6HR MIN TEMP:  74; 6HR MAX TEMP:  89;

ALEXANDRIA INT SUNNY     88  72  58 CALM      30.00F
6HR MIN TEMP:  74; 6HR MAX TEMP:  90;

ALEXANDRIA     PTSUNNY   90  73  57 W7        30.02F HX  98
6HR MIN TEMP:  76; 6HR MAX TEMP:  93;


$$

LAZ001-002-251900-
NORTHWEST LOUISIANA

CITY           SKY/WX    TMP DP  RH WIND       PRES   REMARKS
SHREVEPORT     PTSUNNY   87  72  60 SW7       30.02F
6HR MIN TEMP:  72; 6HR MAX TEMP:  89;

BARKSDALE AFB  PTSUNNY   88  72  58 VRB2      30.03F HX  95
6HR MIN TEMP:  71; 6HR MAX TEMP:  89;

DTN SHREVEPORT MOSUNNY   87  71  58 W6        30.03F
6HR MIN TEMP:  73; 6HR MAX TEMP:  88;


$$

LAZ014-016-251900-
NORTHEAST LOUISIANA

CITY           SKY/WX    TMP DP  RH WIND       PRES   REMARKS
MONROE         CLOUDY    87  72  60 N3        30.03F
6HR MIN TEMP:  71; 6HR MAX TEMP:  89;

TALLULAH       MOSUNNY   90  74  59 VRB3      30.02F HX  99
6HR MIN TEMP:  68; 6HR MAX TEMP:  90;


$$




USA.gov is the U.S. government's official web portal to all federal, state and local government web resources and services.